Tracking 31030 objects as of 16-Jul-2025
HD Live streaming from Space Station
objects crossing your sky now

COSMOS 1823 DEB

Track COSMOS 1823 DEB now!
10-day predictions


NORAD ID: 18757
Int'l Code: 1987-020AJ
Perigee: 1,046.8 km
Apogee: 1,204.9 km
Inclination: 73.7 °
Period: 107.7 minutes
Semi major axis: 7496 km
RCS: 0.0664 m2 (small)
Launch date: February 20, 1987
Source: Commonwealth of Independent States (former USSR) (CIS)
Launch site: PLESETSK MISSILE AND SPACE COMPLEX (PKMTR)

Note: This is SATELLITE DEBRIS
Your satellite tracking list
Your tracking list is empty




NASA's NSSDC Master Catalog

Two Line Element Set (TLE):
1 18757U 87020AJ  25196.95454649  .00005426  00000-0  10077-1 0  9997
2 18757  73.7138  61.9728 0105409  97.6774  20.4300 13.37476326755032
Source of the keplerian elements: AFSPC